Orbital Elements at Epoch 2459200.5 (2020-Dec-17.0) TDB
Reference: JPL 22 (heliocentric ecliptic J2000)
Element | Value | Uncertainty (1-sigma) | Units |
e | .2268188360451865 | 3.7491e-08 | |
a | 2.237523184877718 | 7.1313e-09 | au |
q | 1.730010780459635 | 8.2475e-08 | au |
i | 5.316101936999782 | 3.6336e-06 | deg |
node | 33.6088296694952 | 4.308e-05 | deg |
peri | 260.7174268989301 | 4.3969e-05 | deg |
M | 167.8057610772278 | 8.8732e-06 | deg |
tp | 2458630.658454610257 (2019-May-27.15845461) | 2.967e-05 | TDB |
period | 1222.502463702045 3.35 | 5.8445e-06 1.6e-08 | d yr |
n | .2944779341465125 | 1.4078e-09 | deg/d |
Q | 2.7450355892958 | 8.7489e-09 | au |
|
| | Orbit Determination Parameters
Additional Information
|